{"data":{"norad_id":66568,"intl_designator":"2025-268M","name":"STARLINK-35803","alt_names":[],"object_type":"PAYLOAD","status":"ACTIVE","operator":null,"country":"US","launch_date":"2025-11-21","launch_site_code":"AFETR","launch_vehicle":null,"mission":null,"orbit_class":"UNKNOWN","rcs_meters":null,"size_class":null,"mass_kg":null,"dimensions":null,"purposes":["comms"],"wikipedia_slug":null,"has_3d_model":false,"image_url":null,"decayed_at":null,"tle_current":{"epoch":"2026-09-20T20:47:53.077920Z","epoch_age_seconds":57553,"freshness":"FRESH","line1":"1 66568U 25268M   26263.86658655  .00004254  00000+0  16400-3 0  9990","line2":"2 66568  43.0026 324.4499 0001891 271.9604  88.1031 15.27588840 47810","mean_motion":15.2758884,"eccentricity":0.0001891,"inclination_deg":43.0026,"raan_deg":324.4499,"arg_perigee_deg":271.9604,"mean_anomaly_deg":88.1031,"bstar":0.000164,"rev_number":4781,"period_min":94.266203201642,"perigee_km":481.72518074185,"apogee_km":484.32007131241,"semimajor_km":6861.1596260271,"source":"CELESTRAK","updated_at":"2026-09-21T09:00:35.971808Z"}}}